EW6246 Weather Reports


Display with metric or nautical units.
time (UTC)temp
F
wind
direction
speed
MPH
gust
MPH
rain 1hr
in
rain 24hr
in
rain mn
in
humidity
%
barometer
mb
20260505022946 67 310 0.0 1.0 0.00 0.00 0.00 93 1019.3
20260505022443 67 311 0.0 0.0 0.00 0.00 0.00 93 1019.2
20260505021941 67 311 0.0 0.0 0.00 0.00 0.00 93 1019.2
20260505021437 67 311 0.0 0.0 0.00 0.00 0.00 93 1019.2
20260505020932 67 311 0.0 0.0 0.00 0.00 0.00 93 1019.1
20260505020428 67 309 0.0 0.0 0.00 0.00 0.00 93 1019.2
20260505015925 67 304 0.0 0.0 0.00 0.00 0.00 93 1019.1
20260505015422 68 307 0.0 0.0 0.00 0.00 0.00 93 1019.0
20260505014920 68 309 0.0 0.0 0.00 0.00 0.00 93 1018.9
20260505014416 68 302 0.0 0.0 0.00 0.00 0.00 93 1019.0
20260505013913 68 302 0.0 0.0 0.00 0.00 0.00 93 1019.0
20260505013410 68 306 0.0 0.0 0.00 0.00 0.00 93 1018.9
20260505012908 69 308 0.0 1.0 0.00 0.00 0.00 93 1018.7
20260505012406 69 300 0.0 0.0 0.00 0.00 0.00 92 1018.9
20260505011902 69 300 1.0 1.0 0.00 0.00 0.00 91 1018.6
20260505011359 69 334 1.0 1.0 0.00 0.00 0.00 91 1018.2
20260505010855 69 311 0.0 0.0 0.00 0.00 0.00 92 1018.3
20260505010351 69 299 0.0 0.0 0.00 0.00 0.00 91 1018.1
20260505005847 69 309 0.0 0.0 0.00 0.00 0.00 91 1018.2
20260505005344 70 306 0.0 0.0 0.00 0.00 0.00 91 1018.1
20260505004842 70 315 0.0 0.0 0.00 0.00 0.00 91 1018.1
20260505004338 70 304 0.0 1.0 0.00 0.00 0.00 91 1018.1
20260505003835 71 306 0.0 0.0 0.00 0.00 0.00 88 1018.2
20260505003332 72 289 0.0 0.0 0.00 0.00 0.00 86 1018.2
20260505002828 72 287 1.0 1.0 0.00 0.00 0.00 85 1018.0
20260505002325 72 264 1.0 1.0 0.00 0.00 0.00 87 1018.2
20260505001824 72 285 0.0 0.0 0.00 0.00 0.00 87 1018.2
20260505001320 71 275 1.0 1.0 0.00 0.00 0.00 88 1018.2
20260505000818 72 289 0.0 0.0 0.00 0.00 0.00 88 1018.1
20260505000315 72 309 0.0 0.0 0.00 0.00 0.00 89 1018.2
20260504235812 72 295 0.0 0.0 0.00 0.00 0.00 88 1018.0
20260504235309 72 295 0.0 0.0 0.00 0.00 0.00 87 1018.1
20260504234805 72 19 2.0 2.0 0.00 0.00 0.00 88 1018.2
20260504234303 72 40 1.0 1.0 0.00 0.00 0.00 87 1018.0
20260504233759 72 316 1.0 1.0 0.00 0.00 0.00 88 1017.9
20260504233255 72 298 0.0 1.0 0.00 0.00 0.00 87 1018.0
20260504232752 73 311 0.0 0.0 0.00 0.00 0.00 88 1017.9
20260504232249 73 275 0.0 1.0 0.00 0.00 0.00 87 1018.1
20260504231746 73 87 1.0 1.0 0.00 0.00 0.00 87 1018.0
20260504231243 73 88 0.0 1.0 0.00 0.00 0.00 86 1017.9
20260504230738 73 84 1.0 1.0 0.00 0.00 0.00 85 1018.1
20260504230237 73 353 2.0 2.0 0.00 0.00 0.00 84 1017.9
20260504225735 73 318 0.0 1.0 0.00 0.00 0.00 85 1018.1
20260504225231 73 312 1.0 1.0 0.00 0.00 0.00 86 1017.9
20260504224729 73 287 0.0 1.0 0.00 0.00 0.00 85 1017.9
20260504224226 73 287 0.0 0.0 0.00 0.00 0.00 86 1017.8
20260504223722 74 294 0.0 0.0 0.00 0.00 0.00 85 1017.6
20260504223217 74 325 1.0 1.0 0.00 0.00 0.00 83 1017.6
20260504222715 74 220 2.0 2.0 0.00 0.00 0.00 83 1017.5
20260504222212 74 282 1.0 2.0 0.00 0.00 0.00 82 1017.4
20260504221709 74 282 0.0 0.0 0.00 0.00 0.00 84 1017.3
20260504221206 74 293 1.0 1.0 0.00 0.00 0.00 85 1017.2
20260504220702 74 301 0.0 1.0 0.00 0.00 0.00 84 1017.3
20260504220200 75 104 2.0 3.0 0.00 0.00 0.00 83 1017.2
20260504215656 74 348 2.0 2.0 0.00 0.00 0.00 83 1017.2
20260504215154 74 272 2.0 3.0 0.00 0.00 0.00 84 1017.3
20260504214649 74 252 1.0 2.0 0.00 0.00 0.00 87 1016.7
20260504214146 74 275 2.0 2.0 0.00 0.00 0.00 86 1017.0
20260504213643 74 273 0.0 0.0 0.00 0.00 0.00 85 1017.0
20260504213139 75 266 0.0 0.0 0.00 0.00 0.00 85 1017.0
20260504212636 74 294 3.0 5.0 0.00 0.00 0.00 85 1016.9
20260504212132 75 283 0.0 1.0 0.00 0.00 0.00 85 1016.9
20260504211630 75 265 0.0 0.0 0.00 0.00 0.00 85 1017.0
20260504211126 75 258 1.0 1.0 0.00 0.00 0.00 84 1016.9
20260504210624 76 271 2.0 2.0 0.00 0.00 0.00 83 1016.7
20260504210120 76 298 1.0 2.0 0.00 0.00 0.00 82 1016.6
20260504205618 75 273 0.0 1.0 0.00 0.00 0.00 81 1016.6
20260504205115 76 283 2.0 3.0 0.00 0.00 0.00 82 1016.9
20260504204614 75 261 1.0 1.0 0.00 0.00 0.00 84 1016.6
20260504204112 75 269 0.0 1.0 0.00 0.00 0.00 85 1016.6
20260504203611 77 302 0.0 1.0 0.00 0.00 0.00 82 1016.7
20260504203108 77 258 1.0 1.0 0.00 0.00 0.00 79 1016.5
20260504202603 76 258 3.0 3.0 0.00 0.00 0.00 79 1016.6
20260504202100 76 258 0.0 0.0 0.00 0.00 0.00 83 1016.7
20260504201557 76 258 3.0 5.0 0.00 0.00 0.00 84 1016.5
20260504201055 76 258 1.0 2.0 0.00 0.00 0.00 80 1016.4
20260504200551 77 258 1.0 2.0 0.00 0.00 0.00 83 1016.4
20260504200048 79 282 1.0 1.0 0.00 0.00 0.00 77 1016.4
20260504195544 78 260 3.0 3.0 0.00 0.00 0.00 80 1016.6
20260504195040 78 258 3.0 3.0 0.00 0.00 0.00 81 1016.4
20260504194537 78 258 1.0 1.0 0.00 0.00 0.00 79 1016.6
20260504194032 79 277 0.0 1.0 0.00 0.00 0.00 76 1016.6
20260504193529 78 264 0.0 0.0 0.00 0.00 0.00 76 1016.7
20260504193028 77 258 2.0 3.0 0.00 0.00 0.00 78 1017.0
20260504192526 77 258 1.0 2.0 0.00 0.00 0.00 80 1016.9
20260504192024 77 258 2.0 2.0 0.00 0.00 0.00 81 1017.1
20260504191521 79 261 6.0 7.0 0.00 0.00 0.00 77 1017.2
20260504191017 78 258 0.0 1.0 0.00 0.00 0.00 77 1016.7
20260504190513 79 258 3.0 3.0 0.00 0.00 0.00 78 1016.9
20260504190009 80 258 0.0 0.0 0.00 0.00 0.00 77 1016.7
20260504185507 78 258 0.0 0.0 0.00 0.00 0.00 76 1017.1
20260504185004 78 258 2.0 2.0 0.00 0.00 0.00 76 1017.2
20260504184459 80 269 3.0 6.0 0.00 0.00 0.00 72 1017.1
20260504183954 78 258 1.0 1.0 0.00 0.00 0.00 78 1017.1
20260504183452 79 258 3.0 5.0 0.00 0.00 0.00 75 1017.2
20260504182950 79 258 2.0 2.0 0.00 0.00 0.00 76 1017.2
20260504182446 78 258 0.0 1.0 0.00 0.00 0.00 78 1017.4
20260504181944 79 258 1.0 1.0 0.00 0.00 0.00 76 1017.4
20260504181441 79 258 3.0 3.0 0.00 0.00 0.00 75 1017.5
20260504180939 79 258 5.0 7.0 0.00 0.00 0.00 77 1017.3
20260504180438 80 258 1.0 1.0 0.00 0.00 0.00 72 1017.3
20260504175936 80 258 1.0 2.0 0.00 0.00 0.00 74 1017.4
20260504175433 80 258 2.0 2.0 0.00 0.00 0.00 74 1017.4
20260504174930 80 258 4.0 6.0 0.00 0.00 0.00 71 1017.5
20260504174427 80 258 3.0 5.0 0.00 0.00 0.00 72 1018.0
20260504173925 79 258 2.0 2.0 0.00 0.00 0.00 71 1017.7
20260504173421 80 258 3.0 3.0 0.00 0.00 0.00 71 1017.6
20260504172919 81 258 5.0 7.0 0.00 0.00 0.00 69 1018.0
20260504172415 82 258 1.0 1.0 0.00 0.00 0.00 68 1017.7
20260504171911 82 258 0.0 1.0 0.00 0.00 0.00 65 1017.9
20260504171409 80 258 0.0 0.0 0.00 0.00 0.00 71 1017.9
20260504170905 79 258 0.0 1.0 0.00 0.00 0.00 68 1017.9
20260504170402 80 258 1.0 1.0 0.00 0.00 0.00 67 1017.8
20260504160321 81 258 4.0 6.0 0.00 0.00 0.00 67 1018.3
20260504150745 80 258 2.0 3.0 0.00 0.00 0.00 70 1018.9
20260504150242 79 258 1.0 2.0 0.00 0.00 0.00 72 1018.4
20260504141212 80 302 1.0 1.0 0.00 0.00 0.00 70 1018.9
20260504140708 79 256 3.0 5.0 0.00 0.00 0.00 72 1018.2
20260504140203 80 228 3.0 3.0 0.00 0.00 0.00 70 1018.5
20260504130632 79 291 0.0 1.0 0.00 0.00 0.00 72 1018.5
20260504130129 79 65 3.0 3.0 0.00 0.00 0.00 69 1018.4
20260504110520 70 273 0.0 1.0 0.00 0.00 0.00 88 1018.4
20260504100436 63 289 0.0 0.0 0.00 0.00 0.00 97 1018.1
20260504081824 64 294 0.0 0.0 0.00 0.00 0.00 97 1017.4
20260504081321 64 296 0.0 0.0 0.00 0.00 0.00 96 1017.3
20260504080816 64 308 0.0 0.0 0.00 0.00 0.00 97 1017.4
20260504080314 64 294 0.0 0.0 0.00 0.00 0.00 97 1017.3
20260504070235 64 292 0.0 0.0 0.00 0.00 0.00 96 1017.3
20260504060155 64 293 0.0 0.0 0.00 0.00 0.00 94 1017.8
20260504050624 64 307 0.0 1.0 0.00 0.00 0.00 95 1018.4
20260504050121 64 317 1.0 1.0 0.00 0.00 0.00 95 1018.6
20260504045618 64 291 0.0 0.0 0.00 0.00 0.00 95 1018.6
20260504045112 64 301 0.0 0.0 0.00 0.00 0.00 95 1018.6
20260504044611 64 299 0.0 0.0 0.00 0.00 0.00 95 1018.7
20260504044107 64 281 0.0 0.0 0.00 0.00 0.00 95 1018.9
20260504043604 64 295 0.0 0.0 0.00 0.00 0.00 95 1018.9
20260504043101 64 291 0.0 0.0 0.00 0.00 0.00 95 1018.9
20260504042558 64 294 0.0 0.0 0.00 0.00 0.00 95 1018.7
20260504042055 64 291 0.0 0.0 0.00 0.00 0.00 95 1019.1
20260504041551 64 306 0.0 0.0 0.00 0.00 0.00 95 1019.2
20260504041048 65 295 0.0 0.0 0.00 0.00 0.00 95 1019.1
20260504040545 65 289 1.0 1.0 0.00 0.00 0.00 95 1019.2
20260504040041 64 294 1.0 1.0 0.00 0.00 0.00 95 1019.3
20260504035538 64 286 0.0 0.0 0.00 0.00 0.00 95 1019.1
20260504035034 65 274 0.0 0.0 0.00 0.00 0.00 95 1019.6
20260504034533 65 281 0.0 0.0 0.00 0.00 0.00 94 1019.4
20260504034029 65 285 0.0 0.0 0.00 0.00 0.00 94 1019.5
20260504033528 65 285 0.0 0.0 0.00 0.00 0.00 94 1019.4
20260504033024 65 283 0.0 0.0 0.00 0.00 0.00 94 1019.3
20260504032521 65 281 0.0 0.0 0.00 0.00 0.00 94 1019.5
20260504032018 65 285 0.0 0.0 0.00 0.00 0.00 94 1019.2
20260504031515 65 284 0.0 0.0 0.00 0.00 0.00 94 1019.3
20260504031011 65 282 0.0 0.0 0.00 0.00 0.00 94 1019.4
20260504030509 65 285 0.0 0.0 0.00 0.00 0.00 94 1019.5
20260504030004 65 292 0.0 1.0 0.00 0.00 0.00 94 1019.4
20260504025501 65 283 0.0 0.0 0.00 0.00 0.00 94 1019.5
20260504024958 66 283 0.0 0.0 0.00 0.00 0.00 93 1019.2
20260504024455 65 284 0.0 0.0 0.00 0.00 0.00 94 1019.1
20260504023953 65 287 0.0 1.0 0.00 0.00 0.00 95 1019.2
20260504023449 65 280 0.0 1.0 0.00 0.00 0.00 95 1019.1